NOAA 15
1 25338U 98030A 21339.42445230 .00000055 00000+0 41420-4 0 9997
2 25338 98.6661 6.2874 0011103 139.0582 221.1434 14.26073936225614


Ligne 0
Le nom commun de l'objetNOAA 15
Ligne 1
Numéro de catalogue satellite25338U
Désignateur international98030A
Année de lancement98
Numéro de lancement dans l'année030
Object du lancementA
Époque (année)21
Époque (Jour de l'année en UTC)339.42445230
1ère dérivée du mouvement moyen .00000055
2ème dérivée du mouvement moyen 00000+0
B * Terme de glissement 41420-4
Type de jeu d'éléments0
Numéro d'élément 999
Ligne 2
Numéro de catalogue satellite25338
Inclinaison de l'orbite (degrés) 98.6661
Ascension droite du nœud ascendant (degrés) 6.2874
Excentricité0011103
Argument du Périgée (degrés)139.0582
Anomalie moyenne (degrés)221.1434
Mouvement moyen (révolutions / jour)14.26073936
Numéro de révolution à l'époque22561
Valeurs déduites
Période Orbitale (en minutes)101 min.
Demi-grand axe (en kilomètres)7183 Km
Altitude à l‘Apogée (en kilomètres)820 Km
Altitude au Périgée (en kilomètres)804 Km

* Sources des TLE's : Celestrack